Flag for U.S.A. Weather past 2 weeks in Durham, North Carolina, U.S.A.

Now
40 °F

Passing clouds.


Feels Like: 40 °F
Forecast: 33 / 59 °F
Wind: No wind

Location: Raleigh-Durham International Airport

Current Time: Dec 26, 2014 at 9:35:27 PM

Latest Report: Dec 26, 2014 at 8:51 PM


Visibility: 10 mi

Pressure: 30.33 "Hg

Humidity: 80%

Dew point: 34 °F

Location of DurhamLocation

Historic Weather in Durham — Graph

°F

Durham temperature yesterday

Maximum temperature yesterday: 64 °F (at 12:51 AM)
Minimum temperature yesterday: 36 °F (at 10:51 PM)
Average temperature yesterday: 52 °F

Past Weeks' High & Low Weather Summary

 TemperatureHumidityPressure
High66 °F (Dec 24, 4:51 PM)96% (Dec 24, 10:51 AM)30.37 "Hg (Dec 24, 10:51 AM)
Low26 °F (Dec 12, 6:51 AM)20% (Dec 12, 2:51 PM)29.66 "Hg (Dec 24, 6:51 PM)
Average44 °F70%30.10 "Hg
* Reported Dec 11 7:51 PM — Dec 26 7:51 PM, Durham, Weather by CustomWeather, © 2014

Note: Actual official high and low records may vary slightly from our data, if they occured in-between our weather recording intervals... More about our weather records

Advertising

Durham weather history for previous 24 hours

 ConditionsComfort  
Time TempWeatherWind HumidityBarometerVisibility
7:51 PM
Dec 26
40 °FPassing clouds.No wind80%30.32 "Hg10 mi
6:51 PM45 °FPassing clouds.No wind68%30.31 "Hg10 mi
5:51 PM49 °FPassing clouds.No wind61%30.29 "Hg10 mi
4:51 PM53 °FPassing clouds.No wind52%30.29 "Hg10 mi
3:51 PM58 °FPassing clouds.8 mph43%30.29 "Hg10 mi
2:51 PM58 °FPassing clouds.5 mph43%30.28 "Hg10 mi
1:51 PM57 °FPassing clouds.6 mph44%30.29 "Hg10 mi
12:51 PM56 °FPassing clouds.8 mph46%30.31 "Hg10 mi
11:51 AM54 °FPassing clouds.7 mph51%30.34 "Hg10 mi
10:51 AM49 °FPassing clouds.5 mph59%30.37 "Hg10 mi
9:51 AM42 °FPassing clouds.No wind76%30.37 "Hg10 mi
8:51 AM35 °FScattered clouds.No wind88%30.37 "Hg10 mi
7:51 AM30 °FPartly sunny.No wind92%30.34 "Hg8 mi
6:51 AM30 °FPassing clouds.No wind89%30.32 "Hg10 mi
5:51 AM30 °FPassing clouds.No wind89%30.30 "Hg10 mi
4:51 AM31 °FPassing clouds.No wind89%30.29 "Hg10 mi
3:51 AM32 °FPassing clouds.No wind88%30.28 "Hg10 mi
2:51 AM32 °FPassing clouds.No wind85%30.27 "Hg10 mi
1:51 AM33 °FPassing clouds.No wind88%30.26 "Hg10 mi
12:51 AM34 °FClear.No wind88%30.26 "Hg10 mi
11:51 PM
Dec 25
36 °FClear.3 mph85%30.26 "Hg10 mi
10:51 PM36 °FClear.No wind85%30.27 "Hg10 mi
9:51 PM39 °FClear.No wind79%30.25 "Hg10 mi
Weather by CustomWeather, © 2014

See weather overviewHow to use our weather pages